{"data":{"norad_id":60313,"epoch":"2026-05-25T02:43:38.845920Z","epoch_age_seconds":61674,"freshness":"FRESH","line1":"1 60313U 24133N   26145.11364405  .00004590  00000+0  42663-4 0  9990","line2":"2 60313  53.1587 129.7468 0000786  85.3861 274.7247 15.69741295105731","mean_motion":15.69741295,"eccentricity":7.86e-5,"inclination_deg":53.1587,"raan_deg":129.7468,"arg_perigee_deg":85.3861,"mean_anomaly_deg":274.7247,"bstar":4.2663e-5,"rev_number":10573,"period_min":91.73486131675,"perigee_km":359.10760854477,"apogee_km":360.16678664863,"semimajor_km":6737.7741975967,"source":"CELESTRAK","updated_at":"2026-05-25T13:38:19.230383Z"}}